Location: Goll?ig?dem
(16.6773°N, 80.7332°E)
Time: 02:13:31
(UTC+00:00)

SJ-12 - Pass Details

Date: 21 April 2021
Orbit: 569 x 583 km, 97.7° (Epoch: 08 May)

Event Time Altitude Azimuth Distance (km) Brightness Sun altitude
Rises 23:19:29 0° 13° (NNE) 2,792 7.9 -14.2°
Reaches altitude 10° 23:21:38 10° 14° (NNE) 1,894 7.0 -13.7°
Maximum altitude 23:25:44 80° 102° (ESE) 593 4.0 -12.7°
Drops below altitude 10° 23:29:51 10° 189° (S) 1,894 6.3 -11.8°
Sets 23:32:00 0° 190° (S) 2,792 7.2 -11.3°
